This is the latest recevied weather packets stored in our database for station/object VE1UHF-4. If no packets are shown the sender has not sent any weather packets the latest 10 day(s).
| Time | Temp. | Humidity | Pressure | Rain* | Wind** | Luminosity | Snow |
|---|---|---|---|---|---|---|---|
| 1778011437 | 25.56° C | 77% | 1002.2 hPa | 0 mm | - | - | - |
| 1778009636 | 25.56° C | 79% | 1002.4 hPa | 0 mm | - | - | - |
| 1778008735 | 25.56° C | 80% | 1002.4 hPa | 0 mm | - | - | - |
| 1778007835 | 25.56° C | 82% | 1002.5 hPa | 0 mm | - | - | - |
| 1778006934 | 25.56° C | 84% | 1002.8 hPa | 0 mm | - | - | - |
| 1778006034 | 25.56° C | 84% | 1002.8 hPa | 0 mm | - | - | - |
| 1778005133 | 25.56° C | 84% | 1003 hPa | 0 mm | - | - | - |
| 1778004233 | 25° C | 86% | 1003.1 hPa | 0 mm | - | - | - |
| 1778003332 | 24.44° C | 86% | 1003.1 hPa | 0 mm | - | - | - |
| 1778001533 | 23.33° C | 87% | 1003.6 hPa | 0 mm | - | - | - |
| 1778000631 | 23.33° C | 87% | 1003.2 hPa | 0 mm | - | - | - |
| 1777999730 | 22.78° C | 87% | 1003.6 hPa | 0 mm | - | - | - |
| 1777997929 | 21.67° C | 88% | 1003.5 hPa | 0 mm | - | - | - |
| 1777997028 | 20.56° C | 89% | 1003.6 hPa | 0 mm | - | - | - |
| 1777996128 | 20° C | 89% | 1003.6 hPa | 0 mm | - | - | - |
| 1777995228 | 19.44° C | 89% | 1003.9 hPa | 0 mm | - | - | - |
| 1777994327 | 18.33° C | 89% | 1003.7 hPa | 0 mm | - | - | - |
| 1777992526 | 16.67° C | 89% | 1003.6 hPa | 0 mm | - | - | - |
| 1777991625 | 15.56° C | 89% | 1003.8 hPa | 0 mm | - | - | - |
| 1777990726 | 14.44° C | 89% | 1003.8 hPa | 0 mm | - | - | - |
| 1777989824 | 13.89° C | 89% | 1003.8 hPa | 0 mm | - | - | - |
| 1777988924 | 12.78° C | 88% | 1003.5 hPa | 0 mm | - | - | - |
| 1777987123 | 11.67° C | 87% | 1003.8 hPa | 0 mm | - | - | - |
| 1777986222 | 11.67° C | 87% | 1003.8 hPa | 0 mm | - | - | - |
| 1777982620 | 10° C | 86% | 1004.2 hPa | 0 mm | - | - | - |
* Rain since midnight (hover to see other rain measurements)
** Current wind speed in m/s (hover to see current wind gust speed)